Regional Weather Roundup
Issued by NWS

Home | Current Version | Previous Version | Text Only | Print | Product List | Glossary On
Versions: 1 2 3 4 5 6 7 8 9 10 11 12 13 14 15 16 17 18 19 20 21 22 23 24 25 26 27 28 29 30 31 32 33 34 35 36 37 38 39 40 41 42 43 44 45 46 47 48 49 50
000
ASUS43 KIND 300009
RWRIN

WEATHER ROUNDUP FOR INDIANA
NATIONAL WEATHER SERVICE INDIANAPOLIS IN
800 PM EDT SAT APR 29 2017

NOTE: "FAIR" INDICATES FEW OR NO CLOUDS BELOW 12,000 FEET WITH NO
SIGNIFICANT WEATHER AND/OR OBSTRUCTIONS TO VISIBILITY.

* - STATION DOES NOT REPORT WEATHER SUCH AS PRECIPITATION OR FOG.

+ - STATION NOT QUALITY CONTROLLED BY THE NATIONAL WEATHER SERVICE.
    USE DATA WITH CAUTION...ESPECIALLY DEWPOINT AND RELATIVE
    HUMIDITY OBSERVATIONS.

INZ001>003-010>013-019-020-300100-
NORTHWEST INDIANA

CITY           SKY/WX    TMP DP  RH WIND       PRES   REMARKS
GARY /AIRPORT/ RAIN      45  43  93 N29       30.12R
KNOX *+        CLOUDY    50  32  50 E18       30.03F
LA PORTE +     CLOUDY    51  46  85 NE14G20   30.05F
6HR MIN TEMP:  48; 6HR MAX TEMP:  52; 6HR PCP:  0.01;

MICHIGAN CITY+ RAIN      46  46 100 NE6       30.08F
MONTICELLO +   CLOUDY    51  49  93 E15G21    29.97S FOG
6HR MIN TEMP:  51; 6HR MAX TEMP:  55;

RENSSELAER +   CLOUDY    50  46  87 NE20G26   29.98F
VALPARAISO     LGT RAIN  49  47  93 N9        30.04F FOG
6HR MIN TEMP:  45; 6HR MAX TEMP:  50; 6HR PCP:  0.04;


$$

LMZ046-743>745-300100-
SOUTHERN LAKE MICHIGAN

STATION/POSITION TIME  TEMP    WIND        PRES    WAVE
                       AIR SEA DIR/SP/G            HT
                 (UTC) (F)     (DEG/KT/KT) (MB)    (FT)
BURNS HARBOR     2344   45      30/ 26     1017.3F
MICHIGAN CITY    2340   44      20/ 25/ 27   N/A
5NW MICH CITY    0000   44 47                N/A     7

$$

INZ004-005-014>016-021>024-300100-
NORTH CENTRAL INDIANA

CITY           SKY/WX    TMP DP  RH WIND       PRES   REMARKS
GOSHEN         CLOUDY    50  43  77 E10       30.09F
6HR MIN TEMP:  50; 6HR MAX TEMP:  52; 6HR PCP: TRACE;

LOGANSPORT +   CLOUDY    50  46  87 E15       30.02R FOG
PERU/GRISSOM   CLOUDY    50  50 100 E20       30.01S
6HR MIN TEMP:  50; 6HR MAX TEMP:  56;

ROCHESTER +    CLOUDY    50  46  87 E14       30.04F
SOUTH BEND     CLOUDY    51  44  77 E12G21    30.08F
6HR MIN TEMP:  51; 6HR MAX TEMP:  52; 6HR PCP:  0.02;

WARSAW +       CLOUDY    48  43  81 E18       30.07S

$$

INZ006>009-017-018-025>027-300100-
NORTHEAST INDIANA

CITY           SKY/WX    TMP DP  RH WIND       PRES   REMARKS
ANGOLA *+      CLOUDY    46  43  87 E10       30.12F
AUBURN +       CLOUDY    46  41  81 E18       30.13R
FORT WAYNE     CLOUDY    48  44  86 NE20G29   30.08S FOG
6HR MIN TEMP:  48; 6HR MAX TEMP:  52; 6HR PCP:  0.01;

HUNTINGTON +   CLOUDY   N/A N/A N/A E15G26    30.05F
KENDALLVILLE + CLOUDY    47  42  83 E16G24    30.10F

$$

INZ028-029-035-036-043>045-051>053-300100-
WEST CENTRAL INDIANA

CITY           SKY/WX    TMP DP  RH WIND       PRES   REMARKS
CRAWFORDSVL +  CLOUDY    54  54 100 NE17      29.91F FOG
6HR MIN TEMP:  54; 6HR MAX TEMP:  65;

GREENCASTLE +  CLOUDY    72  63  73 E7        29.89F
LAFAYETTE      CLOUDY    52  52 100 E21G30    29.94F FOG
6HR MIN TEMP:  52; 6HR MAX TEMP:  58;

TERRE HAUTE    CLOUDY    73  65  75 E6        29.85S
6HR MIN TEMP:  67; 6HR MAX TEMP:  76;


$$

INZ030>032-037>040-046>048-054>057-064-065-300100-
CENTRAL INDIANA

CITY           SKY/WX    TMP DP  RH WIND       PRES   REMARKS
CP ATTERBURY + CLOUDY    73  64  73 E5        29.91S
COLUMBUS       MOCLDY    75  64  69 SE6       29.90F
FRANKFORT +    CLOUDY    55  54  95 E17G25    29.98S FOG
6HR MIN TEMP:  55; 6HR MAX TEMP:  62;

GREENWOOD *+   CLOUDY    73  64  71 E5        29.92S
6HR MIN TEMP:  70; 6HR MAX TEMP:  76;

INDIANAPOLIS   CLOUDY    66  62  87 NE17      29.91R
6HR MIN TEMP:  66; 6HR MAX TEMP:  74;

-EAGLE CREEK   CLOUDY    63  58  83 NE12G18   29.92S
6HR MIN TEMP:  63; 6HR MAX TEMP:  75;

KOKOMO +       CLOUDY    50  49  96 E21G29    30.01F FOG
6HR MIN TEMP:  50; 6HR MAX TEMP:  57;

MARION +       CLOUDY    48  48 100 E20G25    30.03R FOG
MT COMFORT *+  CLOUDY    59  57  94 NE15      29.96R
SHELBYVILLE    PTCLDY    75  64  68 E9        29.91S
6HR MIN TEMP:  72; 6HR MAX TEMP:  79;

ZIONSVILLE +   FOG       54  53  99 NE14      29.96F VSB 3/4
6HR MIN TEMP:  54; 6HR MAX TEMP:  63;


$$

INZ033-034-041-042-049-050-058-059-300100-
EAST CENTRAL INDIANA

CITY           SKY/WX    TMP DP  RH WIND       PRES   REMARKS
MUNCIE         CLOUDY    53  52  96 E14       30.02R FOG
6HR MIN TEMP:  53; 6HR MAX TEMP:  64;

RICHMOND +     PTCLDY    59  59 100 NE14      29.98F FOG

$$

INZ060-061-067>069-081>083-085>088-300100-
SOUTHWEST INDIANA

CITY           SKY/WX    TMP DP  RH WIND       PRES   REMARKS
EVANSVILLE     CLOUDY    84  66  54 S12G20    29.86R
WASHINGTON +   CLOUDY    77  67  71 S7        29.85R
6HR MIN TEMP:  74; 6HR MAX TEMP:  81;


$$

INZ062-063-066-070>080-084-089>092-300100-
SOUTH CENTRAL AND SOUTHEAST INDIANA

CITY           SKY/WX    TMP DP  RH WIND       PRES   REMARKS
BLOOMINGTON    CLOUDY    76  64  66 E7        29.88S
6HR MIN TEMP:  71; 6HR MAX TEMP:  79;

MADISON *+     CLOUDY    77  66  69 E5        29.94R

$$




USA.gov is the U.S. government's official web portal to all federal, state and local government web resources and services.